WEERSPREUK VAN DE DAG: Brengt oktober vorst en sneeuw, men hoort in de winter veel klaaggeschreeuw.
Het weer levert geen direct gevaar op.    Er zijn geen waarschuwingen afgegeven.


Onweer radar Meer informatie blitzortung!


Regen radar Meer informatie rain snow radar


Bekijk deze sites ook eens:

FPL Automotive (TIP)

Autostekkers.nl (TIP)

Over Luyksgestel

BOL.com

Weerstation Noordbergum

Weerstation Afferden

Drone kopen?

Weerstation Hapert

Weerstation Hoogeloon

Weerstation Hechtel (B)

Weerstation Son&Breugel

Weerstation Castaert

Kamera Express

Smartphonehoesjes

Weerstation Tilburg Reeshof

Weerstation Scheulder

Samostour webcams

Samos actueel

Weerwoord (forum)

Griekenlandforum

Vakantie naar Samos

Alpenweerman

Wintersportweerman

Sneeuwhoogte Oostenrijk

Sneeuwhoogte Zwitserland

Sneeuwhoogte Duitsland

Sneeuwhoogte Italie

Sneeuwhoogte Frankrijk

Winterzon

Webcams Gargellen

Wintersportweer



Weather Underground Historische gegevens

Dagelijkse Samenvatting oktober 23, 2017 Eenheden:  Metrisch    Engels   Beide
« Vorige Dag
Volgende Dag »
Dagelijkse Wekelijkse Maandelijkse Jaarlijkse Aangepaste
  Huidig: Hoog: Laag: Gemiddeld:
Temperatuur: 15.1 °C 15.9 °C 9.4 °C 11.1 °C
Dauwpunt: 10.3 °C 10.8 °C 7.1 °C 8.4 °C
Vochtigheid: 73 % 89 % 70 % 84 %
Wind snelheid: 7.9 km/h 20.9 km/h 0.0 km/h 8.8 km/h
Windvlaag: 14.5 km/h 24.1 km/h - -
Wind:North - - SSW
Luchtdruk: 1017.8 hPa 1017.8 hPa 1014.4 hPa -
Neerslag: 0.0 mm      
Historical Graphs
 
 
Tabel voor oktober 23, 2017
Tijd Temperatuur Dauwpunt Luchtdruk Wind Wind snelheid Windvlaag Vochtigheid Regenval per uur
00:02 9.4 °C 7.2 °C 1014.4 hPa SSW 16.3 km/h 17.7 km/h 86 % 0.0 mm
00:07 9.4 °C 7.2 °C 1014.4 hPa SW 7.9 km/h 16.1 km/h 86 % 0.0 mm
00:12 9.4 °C 7.2 °C 1014.4 hPa SSW 9.7 km/h 14.5 km/h 86 % 0.0 mm
00:22 9.4 °C 7.2 °C 1014.4 hPa SSW 7.9 km/h 12.9 km/h 86 % 0.0 mm
00:27 9.5 °C 7.3 °C 1014.4 hPa SSW 4.7 km/h 12.9 km/h 86 % 0.0 mm
00:32 9.5 °C 7.1 °C 1014.4 hPa SSW 9.7 km/h 14.5 km/h 85 % 0.0 mm
00:37 9.6 °C 7.2 °C 1014.4 hPa SSW 7.9 km/h 12.9 km/h 85 % 0.0 mm
00:42 9.6 °C 7.2 °C 1014.4 hPa SSW 7.9 km/h 14.5 km/h 85 % 0.0 mm
00:47 9.6 °C 7.2 °C 1014.4 hPa South 7.9 km/h 17.7 km/h 85 % 0.0 mm
00:52 9.6 °C 7.2 °C 1014.4 hPa SW 9.7 km/h 16.1 km/h 85 % 0.0 mm
00:57 9.6 °C 7.2 °C 1014.4 hPa SSW 9.7 km/h 16.1 km/h 85 % 0.0 mm
01:02 9.7 °C 7.3 °C 1014.4 hPa SW 6.4 km/h 16.1 km/h 85 % 0.0 mm
01:12 9.7 °C 7.1 °C 1014.4 hPa South 6.4 km/h 11.3 km/h 84 % 0.0 mm
01:17 9.7 °C 7.1 °C 1014.4 hPa SSW 9.7 km/h 14.5 km/h 84 % 0.0 mm
01:22 9.8 °C 7.2 °C 1014.4 hPa SSW 7.9 km/h 11.3 km/h 84 % 0.0 mm
01:27 9.7 °C 7.1 °C 1014.4 hPa SW 4.7 km/h 11.3 km/h 84 % 0.0 mm
01:37 9.8 °C 7.2 °C 1014.4 hPa WSW 7.9 km/h 14.5 km/h 84 % 0.0 mm
01:42 9.8 °C 7.2 °C 1014.4 hPa South 6.4 km/h 12.9 km/h 84 % 0.0 mm
01:47 9.8 °C 7.4 °C 1014.4 hPa SSW 7.9 km/h 11.3 km/h 85 % 0.0 mm
01:52 9.8 °C 7.4 °C 1014.4 hPa SSW 14.3 km/h 16.1 km/h 85 % 0.0 mm
01:57 9.8 °C 7.4 °C 1014.4 hPa SSW 11.1 km/h 17.7 km/h 85 % 0.0 mm
02:02 9.8 °C 7.2 °C 1014.8 hPa SW 9.7 km/h 16.1 km/h 84 % 0.0 mm
02:07 9.8 °C 7.4 °C 1014.8 hPa South 17.7 km/h 19.3 km/h 85 % 0.0 mm
02:12 9.8 °C 7.4 °C 1014.8 hPa SSW 7.9 km/h 14.5 km/h 85 % 0.0 mm
02:17 9.8 °C 7.4 °C 1014.4 hPa SW 11.1 km/h 14.5 km/h 85 % 0.0 mm
02:22 9.8 °C 7.4 °C 1014.4 hPa SSW 4.7 km/h 12.9 km/h 85 % 0.0 mm
02:27 9.8 °C 7.4 °C 1014.4 hPa SSW 9.7 km/h 16.1 km/h 85 % 0.0 mm
02:32 9.8 °C 7.4 °C 1014.4 hPa SW 7.9 km/h 14.5 km/h 85 % 0.0 mm
02:37 9.8 °C 7.4 °C 1014.4 hPa SSW 11.1 km/h 12.9 km/h 85 % 0.0 mm
02:42 9.8 °C 7.4 °C 1014.4 hPa SSW 9.7 km/h 16.1 km/h 85 % 0.0 mm
02:52 9.7 °C 7.5 °C 1014.4 hPa SSW 7.9 km/h 11.3 km/h 86 % 0.0 mm
02:57 9.7 °C 7.5 °C 1014.4 hPa SW 6.4 km/h 11.3 km/h 86 % 0.0 mm
03:02 9.7 °C 7.5 °C 1014.8 hPa SSW 7.9 km/h 14.5 km/h 86 % 0.0 mm
03:07 9.6 °C 7.4 °C 1014.8 hPa SSW 9.7 km/h 11.3 km/h 86 % 0.0 mm
03:12 9.6 °C 7.4 °C 1014.8 hPa WSW 9.7 km/h 17.7 km/h 86 % 0.0 mm
03:17 9.6 °C 7.4 °C 1014.8 hPa SSW 7.9 km/h 11.3 km/h 86 % 0.0 mm
03:23 9.5 °C 7.3 °C 1014.8 hPa SW 9.7 km/h 16.1 km/h 86 % 0.0 mm
03:28 9.5 °C 7.3 °C 1014.8 hPa SW 11.1 km/h 12.9 km/h 86 % 0.0 mm
03:33 9.5 °C 7.3 °C 1014.8 hPa SSW 4.7 km/h 9.7 km/h 86 % 0.0 mm
03:38 9.4 °C 7.2 °C 1014.8 hPa SSW 7.9 km/h 12.9 km/h 86 % 0.0 mm
03:43 9.4 °C 7.2 °C 1014.8 hPa SW 4.7 km/h 11.3 km/h 86 % 0.0 mm
03:48 9.4 °C 7.3 °C 1015.1 hPa SSW 6.4 km/h 12.9 km/h 87 % 0.0 mm
03:53 9.4 °C 7.2 °C 1015.1 hPa South 3.2 km/h 11.3 km/h 86 % 0.0 mm
03:58 9.5 °C 7.3 °C 1015.1 hPa South 6.4 km/h 11.3 km/h 86 % 0.0 mm
04:03 9.5 °C 7.3 °C 1015.1 hPa South 7.9 km/h 12.9 km/h 86 % 0.0 mm
04:08 9.5 °C 7.3 °C 1015.1 hPa South 7.9 km/h 11.3 km/h 86 % 0.0 mm
04:13 9.5 °C 7.3 °C 1015.1 hPa South 11.1 km/h 16.1 km/h 86 % 0.0 mm
04:23 9.6 °C 7.4 °C 1015.1 hPa SSW 7.9 km/h 14.5 km/h 86 % 0.0 mm
04:28 9.6 °C 7.4 °C 1015.1 hPa SSW 4.7 km/h 14.5 km/h 86 % 0.0 mm
04:33 9.6 °C 7.4 °C 1015.1 hPa SW 11.1 km/h 14.5 km/h 86 % 0.0 mm
04:43 9.6 °C 7.4 °C 1015.1 hPa SSW 9.7 km/h 16.1 km/h 86 % 0.0 mm
04:48 9.6 °C 7.4 °C 1015.1 hPa South 1.4 km/h 12.9 km/h 86 % 0.0 mm
04:53 9.6 °C 7.4 °C 1015.1 hPa SSW 9.7 km/h 12.9 km/h 86 % 0.0 mm
04:58 9.6 °C 7.4 °C 1015.1 hPa SSW 14.3 km/h 16.1 km/h 86 % 0.0 mm
05:03 9.6 °C 7.4 °C 1015.1 hPa WSW 11.1 km/h 16.1 km/h 86 % 0.0 mm
05:08 9.6 °C 7.5 °C 1015.1 hPa South 6.4 km/h 12.9 km/h 87 % 0.0 mm
05:18 9.6 °C 7.5 °C 1015.1 hPa SW 9.7 km/h 14.5 km/h 87 % 0.0 mm
05:23 9.6 °C 7.5 °C 1015.5 hPa SSW 13.0 km/h 22.5 km/h 87 % 0.0 mm
05:28 9.7 °C 7.5 °C 1015.5 hPa SW 13.0 km/h 14.5 km/h 86 % 0.0 mm
05:33 9.7 °C 7.5 °C 1015.5 hPa SW 6.4 km/h 14.5 km/h 86 % 0.0 mm
05:38 9.7 °C 7.5 °C 1015.5 hPa SW 11.1 km/h 17.7 km/h 86 % 0.0 mm
05:43 9.7 °C 7.5 °C 1015.5 hPa SSW 7.9 km/h 12.9 km/h 86 % 0.0 mm
05:48 9.8 °C 7.6 °C 1015.5 hPa SW 9.7 km/h 12.9 km/h 86 % 0.0 mm
05:54 9.7 °C 7.5 °C 1015.5 hPa SSE 7.9 km/h 16.1 km/h 86 % 0.0 mm
05:59 9.8 °C 7.6 °C 1015.5 hPa SSE 11.1 km/h 16.1 km/h 86 % 0.0 mm
06:04 9.7 °C 7.5 °C 1015.8 hPa SSE 14.3 km/h 14.5 km/h 86 % 0.0 mm
06:09 9.7 °C 7.5 °C 1015.8 hPa SSW 7.9 km/h 12.9 km/h 86 % 0.0 mm
06:14 9.8 °C 7.6 °C 1015.8 hPa WSW 9.7 km/h 12.9 km/h 86 % 0.0 mm
06:19 9.8 °C 7.7 °C 1015.8 hPa SW 11.1 km/h 16.1 km/h 87 % 0.0 mm
06:24 9.8 °C 7.6 °C 1015.8 hPa SW 7.9 km/h 14.5 km/h 86 % 0.0 mm
06:29 9.8 °C 7.7 °C 1015.8 hPa SSW 11.1 km/h 12.9 km/h 87 % 0.0 mm
06:34 9.8 °C 7.7 °C 1015.8 hPa South 7.9 km/h 16.1 km/h 87 % 0.0 mm
06:39 9.9 °C 7.7 °C 1015.8 hPa SW 9.7 km/h 17.7 km/h 86 % 0.0 mm
06:44 9.9 °C 7.7 °C 1015.8 hPa SSW 9.7 km/h 16.1 km/h 86 % 0.0 mm
06:49 9.9 °C 7.7 °C 1015.8 hPa SSW 13.0 km/h 14.5 km/h 86 % 0.0 mm
06:54 9.9 °C 7.7 °C 1015.8 hPa SSW 11.1 km/h 17.7 km/h 86 % 0.0 mm
06:59 9.9 °C 7.7 °C 1015.8 hPa SW 16.3 km/h 19.3 km/h 86 % 0.0 mm
07:04 9.8 °C 7.7 °C 1015.8 hPa SSW 11.1 km/h 14.5 km/h 87 % 0.0 mm
07:09 9.8 °C 7.7 °C 1015.8 hPa SW 11.1 km/h 17.7 km/h 87 % 0.0 mm
07:14 9.8 °C 7.7 °C 1015.8 hPa SW 6.4 km/h 17.7 km/h 87 % 0.0 mm
07:24 9.8 °C 7.7 °C 1015.8 hPa WSW 9.7 km/h 20.9 km/h 87 % 0.0 mm
07:29 9.8 °C 7.7 °C 1016.1 hPa SW 4.7 km/h 14.5 km/h 87 % 0.0 mm
07:34 9.8 °C 7.7 °C 1016.1 hPa SW 11.1 km/h 19.3 km/h 87 % 0.0 mm
07:44 9.6 °C 7.5 °C 1016.1 hPa SSW 3.2 km/h 11.3 km/h 87 % 0.0 mm
07:49 9.5 °C 7.6 °C 1016.1 hPa SSW 6.4 km/h 16.1 km/h 88 % 0.0 mm
07:54 9.5 °C 7.6 °C 1016.1 hPa SW 7.9 km/h 11.3 km/h 88 % 0.0 mm
07:59 9.6 °C 7.7 °C 1016.1 hPa SW 4.7 km/h 11.3 km/h 88 % 0.0 mm
08:04 9.6 °C 7.9 °C 1016.1 hPa SSW 11.1 km/h 16.1 km/h 89 % 0.0 mm
08:09 9.7 °C 7.8 °C 1016.1 hPa SW 3.2 km/h 12.9 km/h 88 % 0.0 mm
08:14 9.7 °C 7.8 °C 1016.1 hPa SSW 6.4 km/h 12.9 km/h 88 % 0.0 mm
08:19 9.8 °C 7.9 °C 1016.1 hPa SSW 7.9 km/h 16.1 km/h 88 % 0.0 mm
08:24 9.8 °C 7.9 °C 1016.1 hPa SSW 6.4 km/h 9.7 km/h 88 % 0.0 mm
08:29 9.8 °C 8.1 °C 1016.5 hPa South 14.3 km/h 14.5 km/h 89 % 0.0 mm
08:34 9.8 °C 8.1 °C 1016.5 hPa SSW 9.7 km/h 16.1 km/h 89 % 0.0 mm
08:39 9.7 °C 8.0 °C 1016.5 hPa SSW 7.9 km/h 16.1 km/h 89 % 0.0 mm
08:44 9.7 °C 8.0 °C 1016.5 hPa SSW 13.0 km/h 16.1 km/h 89 % 0.0 mm
08:49 9.7 °C 8.0 °C 1016.5 hPa South 9.7 km/h 14.5 km/h 89 % 0.0 mm
08:54 9.7 °C 8.0 °C 1016.5 hPa SSW 7.9 km/h 16.1 km/h 89 % 0.0 mm
08:59 9.8 °C 8.1 °C 1016.1 hPa SSW 9.7 km/h 16.1 km/h 89 % 0.0 mm
09:04 9.9 °C 8.2 °C 1016.1 hPa SSW 6.4 km/h 14.5 km/h 89 % 0.0 mm
09:09 10.1 °C 8.4 °C 1016.1 hPa North 9.7 km/h 14.5 km/h 89 % 0.0 mm
09:14 10.2 °C 8.5 °C 1016.5 hPa WSW 7.9 km/h 17.7 km/h 89 % 0.0 mm
09:19 10.3 °C 8.6 °C 1016.5 hPa WSW 14.3 km/h 19.3 km/h 89 % 0.0 mm
09:24 10.4 °C 8.5 °C 1016.5 hPa SSW 11.1 km/h 17.7 km/h 88 % 0.0 mm
09:29 10.4 °C 8.5 °C 1016.5 hPa SW 11.1 km/h 20.9 km/h 88 % 0.0 mm
09:39 10.6 °C 8.7 °C 1016.5 hPa SW 11.1 km/h 16.1 km/h 88 % 0.0 mm
09:44 10.7 °C 8.8 °C 1016.8 hPa North 9.7 km/h 22.5 km/h 88 % 0.0 mm
09:49 10.8 °C 8.9 °C 1016.8 hPa SW 6.4 km/h 17.7 km/h 88 % 0.0 mm
09:54 10.9 °C 9.0 °C 1016.8 hPa SSW 7.9 km/h 17.7 km/h 88 % 0.0 mm
10:04 10.9 °C 9.0 °C 1016.8 hPa WSW 1.4 km/h 17.7 km/h 88 % 0.0 mm
10:09 11.1 °C 9.0 °C 1016.8 hPa North 11.1 km/h 16.1 km/h 87 % 0.0 mm
10:14 11.4 °C 9.3 °C 1016.8 hPa SW 14.3 km/h 16.1 km/h 87 % 0.0 mm
10:19 11.7 °C 9.4 °C 1016.8 hPa SW 13.0 km/h 16.1 km/h 86 % 0.0 mm
10:25 11.9 °C 9.5 °C 1016.8 hPa SSW 11.1 km/h 14.5 km/h 85 % 0.0 mm
10:30 11.8 °C 9.4 °C 1017.2 hPa SSW 13.0 km/h 14.5 km/h 85 % 0.0 mm
10:35 11.7 °C 9.3 °C 1017.2 hPa North 20.9 km/h 24.1 km/h 85 % 0.0 mm
10:40 11.6 °C 9.3 °C 1017.2 hPa SW 6.4 km/h 17.7 km/h 86 % 0.0 mm
10:45 11.6 °C 9.3 °C 1017.2 hPa North 4.7 km/h 19.3 km/h 86 % 0.0 mm
10:50 11.6 °C 9.3 °C 1017.2 hPa SSW 7.9 km/h 17.7 km/h 86 % 0.0 mm
10:55 11.6 °C 9.3 °C 1017.2 hPa South 19.5 km/h 20.9 km/h 86 % 0.0 mm
11:00 11.7 °C 9.4 °C 1017.2 hPa South 13.0 km/h 17.7 km/h 86 % 0.0 mm
11:10 12.2 °C 9.8 °C 1017.2 hPa SW 6.4 km/h 20.9 km/h 85 % 0.0 mm
11:15 12.3 °C 9.7 °C 1017.2 hPa North 7.9 km/h 14.5 km/h 84 % 0.0 mm
11:25 12.3 °C 9.7 °C 1017.2 hPa North 16.3 km/h 20.9 km/h 84 % 0.0 mm
11:30 12.5 °C 9.7 °C 1017.2 hPa SSW 14.3 km/h 20.9 km/h 83 % 0.0 mm
11:40 12.7 °C 9.9 °C 1017.2 hPa SSW 9.7 km/h 14.5 km/h 83 % 0.0 mm
11:45 13.0 °C 10.0 °C 1017.2 hPa SSW 11.1 km/h 24.1 km/h 82 % 0.0 mm
11:50 13.1 °C 10.1 °C 1017.2 hPa SSW 17.7 km/h 22.5 km/h 82 % 0.0 mm
11:55 12.9 °C 9.9 °C 1017.2 hPa WSW 6.4 km/h 16.1 km/h 82 % 0.0 mm
12:05 13.3 °C 10.1 °C 1017.2 hPa WSW 19.5 km/h 19.5 km/h 81 % 0.0 mm
12:10 13.3 °C 10.1 °C 1017.2 hPa SW 9.7 km/h 17.7 km/h 81 % 0.0 mm
12:15 13.4 °C 10.2 °C 1017.5 hPa WSW 4.7 km/h 14.5 km/h 81 % 0.0 mm
12:20 13.8 °C 10.6 °C 1017.5 hPa SSW 7.9 km/h 14.5 km/h 81 % 0.0 mm
12:25 14.2 °C 10.6 °C 1017.5 hPa WNW 7.9 km/h 12.9 km/h 79 % 0.0 mm
12:30 14.1 °C 10.5 °C 1017.5 hPa South 9.7 km/h 19.3 km/h 79 % 0.0 mm
12:35 13.9 °C 10.3 °C 1017.5 hPa North 9.7 km/h 14.5 km/h 79 % 0.0 mm
12:40 13.7 °C 10.3 °C 1017.5 hPa SW 7.9 km/h 17.7 km/h 80 % 0.0 mm
12:45 13.7 °C 10.3 °C 1017.5 hPa SW 6.4 km/h 9.7 km/h 80 % 0.0 mm
12:50 13.8 °C 10.6 °C 1017.5 hPa SSW 7.9 km/h 11.3 km/h 81 % 0.0 mm
12:55 13.8 °C 10.4 °C 1017.5 hPa North 6.4 km/h 8.0 km/h 80 % 0.0 mm
13:00 13.9 °C 10.3 °C 1017.8 hPa WSW 4.7 km/h 14.5 km/h 79 % 0.0 mm
13:05 13.9 °C 10.1 °C 1017.8 hPa SW 7.9 km/h 11.3 km/h 78 % 0.0 mm
13:10 14.0 °C 10.0 °C 1017.8 hPa SW 1.4 km/h 9.7 km/h 77 % 0.0 mm
13:15 14.2 °C 10.0 °C 1017.8 hPa SW 7.9 km/h 14.5 km/h 76 % 0.0 mm
13:20 14.2 °C 9.8 °C 1017.8 hPa SW 1.4 km/h 12.9 km/h 75 % 0.0 mm
13:25 14.2 °C 9.8 °C 1017.8 hPa Calm   12.9 km/h 75 % 0.0 mm
13:30 14.1 °C 9.7 °C 1017.8 hPa SW 6.4 km/h 11.3 km/h 75 % 0.0 mm
13:35 14.1 °C 9.7 °C 1017.8 hPa SW 6.4 km/h 12.9 km/h 75 % 0.0 mm
13:40 14.1 °C 9.5 °C 1017.8 hPa South 9.7 km/h 11.3 km/h 74 % 0.0 mm
13:45 14.2 °C 9.6 °C 1017.8 hPa SSW 7.9 km/h 14.5 km/h 74 % 0.0 mm
13:50 14.2 °C 9.6 °C 1017.8 hPa SW 4.7 km/h 12.9 km/h 74 % 0.0 mm
13:55 14.2 °C 9.6 °C 1017.8 hPa SW 3.2 km/h 8.0 km/h 74 % 0.0 mm
14:00 14.3 °C 9.9 °C 1017.8 hPa SSW 6.4 km/h 9.7 km/h 75 % 0.0 mm
14:05 14.3 °C 9.7 °C 1017.8 hPa WSW 6.4 km/h 14.5 km/h 74 % 0.0 mm
14:10 14.4 °C 9.8 °C 1017.8 hPa Calm   14.5 km/h 74 % 0.0 mm
14:15 14.6 °C 10.2 °C 1017.8 hPa SSW 7.9 km/h 12.9 km/h 75 % 0.0 mm
14:20 15.2 °C 10.4 °C 1017.8 hPa SW 13.0 km/h 17.7 km/h 73 % 0.0 mm
14:25 15.2 °C 10.4 °C 1017.8 hPa SSW 6.4 km/h 12.9 km/h 73 % 0.0 mm
14:31 15.1 °C 10.5 °C 1017.8 hPa South 3.2 km/h 16.1 km/h 74 % 0.0 mm
14:36 14.9 °C 10.3 °C 1017.8 hPa WSW 7.9 km/h 17.7 km/h 74 % 0.0 mm
14:41 14.8 °C 10.4 °C 1017.8 hPa SSW 4.7 km/h 16.1 km/h 75 % 0.0 mm
14:46 15.0 °C 10.6 °C 1017.8 hPa SW 7.9 km/h 16.1 km/h 75 % 0.0 mm
14:51 15.4 °C 10.8 °C 1017.8 hPa WSW 3.2 km/h 9.7 km/h 74 % 0.0 mm
14:56 15.9 °C 10.6 °C 1017.8 hPa SW 9.7 km/h 9.7 km/h 71 % 0.0 mm
15:01 15.9 °C 10.4 °C 1017.8 hPa South 13.0 km/h 20.9 km/h 70 % 0.0 mm
15:06 15.4 °C 10.2 °C 1017.8 hPa North 11.1 km/h 17.7 km/h 71 % 0.0 mm
15:11 15.1 °C 10.3 °C 1017.8 hPa North 7.9 km/h 14.5 km/h 73 % 0.0 mm
Weerstation Luyksgestel
Gegevens verzameld door Weather Underground - 3.5 mb

Script ontwikkeld door  Jim McMurry - jmcmurry@mwt.net Aangepast voor de template door  Wim van der Kuil - Leuven-Template.eu

U vindt ons ook hier:

UK Metoffice

Weather Underground

AWEKAS